Home   Weather   Corpus Christi   Past weeks

Flag for USA Past Weather in Corpus Christi, Texas, USA — Yesterday and Last 2 Weeks

54 °F

Passing clouds.

Feels Like: 53 °F
Forecast: 59 / 81 °F
Wind: 6 mph from North

Location: Corpus Christi International Airport

Current Time: Oct 22, 2016 at 8:38:03 AM

Latest Report: Oct 22, 2016 at 7:51 AM

Visibility: 10 mi

Pressure: 30.17 "Hg

Humidity: 86%

Dew Point: 50 °F

Location of Corpus ChristiLocation

Past Weather in Corpus Christi — Graph


Corpus Christi Temperature Yesterday

Maximum temperature yesterday: 81 °F (at 3:51 PM)
Minimum temperature yesterday: 60 °F (at 11:51 PM)
Average temperature yesterday: 71 °F

High & Low Weather Summary for the Past Weeks

High95 °F (Oct 17, 1:51 PM)100% (Oct 11, 7:51 AM)30.24 "Hg (Oct 11, 7:51 AM)
Low52 °F (Oct 22, 6:51 AM)25% (Oct 10, 2:51 PM)29.78 "Hg (Oct 17, 4:51 PM)
Average79 °F70%30.01 "Hg
* Reported Oct 7 6:51 AM — Oct 22 6:51 AM, Corpus Christi, Weather by CustomWeather, © 2016

Note: Actual official high and low records may vary slightly from our data, if they occured in-between our weather recording intervals... More about our weather records


Corpus Christi Weather History for the Previous 24 Hours

Scroll right to see more
Time TempWeatherWind HumidityBarometerVisibility
6:51 AM
Sat, Oct 22
52 °FClear.6 mph86%30.16 "Hg10 mi
5:51 AM53 °FClear.6 mph83%30.14 "Hg10 mi
4:51 AM53 °FClear.6 mph83%30.14 "Hg10 mi
3:51 AM54 °FClear.6 mph83%30.13 "Hg10 mi
2:51 AM58 °FClear.7 mph72%30.14 "Hg10 mi
1:51 AM57 °FClear.6 mph78%30.15 "Hg10 mi
12:51 AM57 °FClear.6 mph83%30.14 "Hg10 mi
11:51 PM
Fri, Oct 21
60 °FClear.6 mph80%30.16 "Hg10 mi
10:51 PM61 °FClear.6 mph81%30.16 "Hg10 mi
9:51 PM62 °FClear.6 mph78%30.15 "Hg10 mi
8:51 PM68 °FPassing clouds.No wind59%30.14 "Hg10 mi
7:51 PM68 °FPassing clouds.7 mph61%30.14 "Hg10 mi
6:51 PM73 °FPassing clouds.8 mph51%30.13 "Hg10 mi
5:51 PM76 °FPassing clouds.9 mph47%30.12 "Hg10 mi
4:51 PM80 °FScattered clouds.8 mph41%30.12 "Hg10 mi
3:51 PM81 °FScattered clouds.8 mph33%30.13 "Hg10 mi
2:51 PM80 °FScattered clouds.10 mph34%30.14 "Hg10 mi
1:51 PM79 °FScattered clouds.14 mph38%30.17 "Hg10 mi
12:51 PM77 °FPassing clouds.15 mph44%30.21 "Hg10 mi
11:51 AM75 °FScattered clouds.17 mph47%30.23 "Hg10 mi
10:51 AM72 °FScattered clouds.15 mph52%30.23 "Hg10 mi
9:51 AM69 °FScattered clouds.14 mph55%30.24 "Hg10 mi
8:51 AM66 °FScattered clouds.16 mph56%30.22 "Hg10 mi
Weather by CustomWeather, © 2016

See weather overviewHow to use our weather pages